This demonstration page uses our WeatherBlox Daily Observations layout. Learn more.

39.92423, -83.80882

Hourly Observations for July 17, 2018

Temp ( °F °C ) Dew Point ( °F °C ) Humidity (%) Winds ( mph kmh ) Pressure ( in mb ) Visibility ( mi km ) Precip ( " mm )
12:56 am 00:56 Clear 70 21.1 70 21.1 100 100 Calm 29.92 1013 10 16.0934 0 0
1:56 am 01:56 Clear 71 21.7 71 21.7 100 100 W 6 9 29.91 1013 10 16.0934 0 0
2:56 am 02:56 Clear 71 21.7 71 21.7 100 100 NW 6 9 29.91 1013 10 16.0934 0 0
3:56 am 03:56 Clear 70 21.1 70 21.1 100 100 WNW 6 9 29.92 1013 8 12.87472 0 0
4:56 am 04:56 Mostly Clear with Mist and Fog 70 21.1 70 21.1 100 100 WNW 6 9 29.93 1013 6 9.65604 0 0
5:56 am 05:56 Clear 69 20.6 69 20.6 100 100 NW 6 9 29.94 1014 10 16.0934 0 0
6:56 am 06:56 Sunny 69 20.6 67 19.4 93 93 NW 6 9 29.95 1014 10 16.0934 0 0
7:56 am 07:56 Sunny 70 21.1 65 18.3 84 84 undefined N/A 29.98 1015 10 16.0934 0 0
8:56 am 08:56 Sunny 72 22.2 63 17.2 73 73 undefined N/A 29.99 1016 10 16.0934 0 0
9:56 am 09:56 Sunny 76 24.4 61 16.1 60 60 N 9 15 30 1016 10 16.0934 0 0
10:56 am 10:56 Sunny 79 26.1 59 15 50 50 N 10 17 30 1016 10 16.0934 0 0
11:56 am 11:56 Sunny 80 26.7 60 15.6 51 51 N 8 13 30.01 1016 10 16.0934 0 0
12:56 pm 12:56 Sunny 81 27.2 60 15.6 49 49 NNW 10 17 30.01 1016 10 16.0934 0 0
1:56 pm 13:56 Sunny 82 27.8 61 16.1 49 49 NNW 13 20 30 1016 10 16.0934 0 0
2:56 pm 14:56 Sunny 83 28.3 60 15.6 46 46 NNW 10 17 29.99 1016 10 16.0934 0 0
3:56 pm 15:56 Sunny 85 29.4 62 16.7 46 46 NNW 10 17 29.98 1015 10 16.0934 0 0
4:56 pm 16:56 Sunny 84 28.9 60 15.6 44 44 NNW 12 19 29.98 1015 10 16.0934 0 0
5:56 pm 17:56 Sunny 81 27.2 60 15.6 49 49 N 10 17 29.97 1015 10 16.0934 0 0
6:56 pm 18:56 Sunny 81 27.2 61 16.1 51 51 N 9 15 29.97 1015 10 16.0934 0 0
7:56 pm 19:56 Sunny 78 25.6 58 14.4 50 50 N 13 20 29.98 1015 10 16.0934 0 0
8:56 pm 20:56 Sunny 74 23.3 59 15 60 60 N 5 7 30 1016 10 16.0934 0 0
9:56 pm 21:56 Clear 71 21.7 60 15.6 68 68 Calm 30.01 1016 10 16.0934 0 0
10:56 pm 22:56 Clear 67 19.4 62 16.7 84 84 Calm 30.02 1017 10 16.0934 0 0
11:56 pm 23:56 Clear 66 18.9 61 16.1 84 84 VRB 3 6 30.03 1017 10 16.0934 0 0

Powered by AerisWeather